Weather History for Marfa, TX

Change the Weather History Date:

Friday, January 11, 2013

  Actual Average Record
Temperature  
Mean Temperature 46 °F -  
Max Temperature 60 °F 56 °F 73 °F (2005)
Min Temperature 33 °F 25 °F 10 °F (2009)
Degree Days  
Heating Degree Days 18    
Moisture  
Dew Point 31 °F    
Average Humidity 59    
Maximum Humidity 100    
Minimum Humidity 22    
Precipitation  
Precipitation 0.00 in - - ()
Sea Level Pressure  
Sea Level Pressure 29.91 in    
Wind  
Wind Speed - (North)    
Max Wind Speed -    
Max Gust Speed -    
Visibility 10 miles    
Events      
Averages and records for this station are not official NWS values.
T = Trace of Precipitation, MM = Missing Value Source: NWS Daily Summary

Daily Weather History Graph

Daily Weather History Graph

Search for Another Location

Airport:

Trip Planner

Search our weather history database for the weather conditions in past years. The results will help you decide how hot, cold, wet, or windy it might be!

Date:

Astronomy

Jan. 11, 2013 Rise Set
Actual Time 7:53 AM CST 6:14 PM CST
Civil Twilight 7:27 AM CST 6:40 PM CST
Nautical Twilight 6:58 AM CST 7:10 PM CST
Astronomical Twilight 6:29 AM CST 7:39 PM CST
Moon 7:31 AM CST (1/11) 6:31 PM CST (1/11)
Length of Visible Light 11h 13m
Length of Day
10h 20m
Waning Crescent, 0% of the Moon is Illuminated
Jan 11
Waning Crescent
Jan 11
New
Jan 18
First Quarter
Jan 26
Full
Feb 3
Last Quarter

Hourly Weather History & Observations

Time (CST) Temp. Dew Point Humidity Pressure Visibility Wind Dir Wind Speed Gust Speed Precip Events Conditions
12:15 AM 35.6 °F 33.8 °F 93% 30.03 in 10.0 mi North - - N/A   Clear
12:35 AM 37.4 °F 35.6 °F 93% 30.02 in 10.0 mi North - - N/A   Clear
12:55 AM 35.6 °F 33.8 °F 93% 30.02 in 10.0 mi North - - N/A   Clear
1:15 AM 35.6 °F 33.8 °F 93% 30.01 in 10.0 mi North - - N/A   Clear
1:35 AM 35.6 °F 33.8 °F 93% 30.00 in 10.0 mi North - - N/A   Clear
1:55 AM 33.8 °F 33.8 °F 100% 30.00 in 10.0 mi North - - N/A   Clear
2:15 AM 33.8 °F 33.8 °F 100% 29.99 in 10.0 mi North - - N/A   Clear
2:35 AM 33.8 °F 32.0 °F 93% 29.97 in 10.0 mi North - - N/A   Clear
2:55 AM 35.6 °F 33.8 °F 93% 29.97 in 10.0 mi North - - N/A   Clear
3:15 AM 33.8 °F 33.8 °F 100% 29.97 in 10.0 mi North - - N/A   Clear
3:35 AM 33.8 °F 32.0 °F 93% 29.96 in 10.0 mi North - - N/A   Clear
3:55 AM 35.6 °F 33.8 °F 93% 29.95 in 10.0 mi North - - N/A   Clear
4:15 AM 39.2 °F 37.4 °F 93% 29.94 in 10.0 mi North - - N/A   Clear
4:35 AM 37.4 °F 35.6 °F 93% 29.94 in 10.0 mi North - - N/A   Clear
4:55 AM 39.2 °F 35.6 °F 87% 29.92 in 10.0 mi North - - N/A   Clear
5:15 AM 37.4 °F 35.6 °F 93% 29.92 in 10.0 mi North - - N/A   Clear
5:35 AM 37.4 °F 33.8 °F 87% 29.92 in 10.0 mi North - - N/A   Clear
5:55 AM 37.4 °F 33.8 °F 87% 29.91 in 10.0 mi North - - N/A   Clear
6:15 AM 41.0 °F 35.6 °F 81% 29.90 in 10.0 mi North - - N/A   Clear
6:35 AM 42.8 °F 33.8 °F 70% 29.91 in 10.0 mi North - - N/A   Clear
6:55 AM 41.0 °F 33.8 °F 76% 29.92 in 10.0 mi North - - N/A   Clear
7:15 AM 41.0 °F 33.8 °F 76% 29.92 in 10.0 mi North - - N/A   Clear
7:35 AM 41.0 °F 33.8 °F 76% 29.92 in 10.0 mi North - - N/A   Clear
7:55 AM 42.8 °F 33.8 °F 70% 29.92 in 10.0 mi North - - N/A   Clear
8:15 AM 42.8 °F 33.8 °F 70% 29.93 in 10.0 mi North - - N/A   Clear
8:35 AM 42.8 °F 33.8 °F 70% 29.94 in 10.0 mi North - - N/A   Clear
8:55 AM 44.6 °F 33.8 °F 66% 29.95 in 10.0 mi North - - N/A   Clear
9:15 AM 46.4 °F 32.0 °F 57% 29.96 in 10.0 mi North - - N/A   Clear
9:35 AM 46.4 °F 30.2 °F 53% 29.97 in 10.0 mi North - - N/A   Clear
9:55 AM 46.4 °F 30.2 °F 53% 29.98 in 10.0 mi North - - N/A   Clear
10:15 AM 48.2 °F 30.2 °F 50% 29.98 in 10.0 mi North - - N/A   Clear
10:35 AM 48.2 °F 30.2 °F 50% 29.98 in 10.0 mi North - - N/A   Clear
10:55 AM 48.2 °F 30.2 °F 50% 29.97 in 10.0 mi North - - N/A   Clear
11:15 AM 48.2 °F 30.2 °F 50% 29.97 in 10.0 mi North - - N/A   Clear
11:55 AM 51.8 °F 32.0 °F 47% 29.94 in 10.0 mi North - - N/A   Clear
12:15 PM 51.8 °F 30.2 °F 44% 29.93 in 10.0 mi North - - N/A   Clear
12:35 PM 53.6 °F 30.2 °F 41% 29.91 in 10.0 mi North - - N/A   Clear
12:55 PM 57.2 °F 30.2 °F 36% 29.90 in 10.0 mi North - - N/A   Clear
1:15 PM 60.8 °F 28.4 °F 29% 29.88 in 10.0 mi North - - N/A   Clear
1:35 PM 60.8 °F 24.8 °F 25% 29.87 in 10.0 mi North - - N/A   Clear
1:55 PM 57.2 °F 24.8 °F 29% 29.87 in 10.0 mi North - - N/A   Clear
2:15 PM 57.2 °F 23.0 °F 27% 29.87 in 10.0 mi North - - N/A   Clear
2:35 PM 59.0 °F 21.2 °F 23% 29.87 in 10.0 mi North - - N/A   Clear
2:55 PM 59.0 °F 21.2 °F 23% 29.86 in 10.0 mi North - - N/A   Clear
3:15 PM 59.0 °F 19.4 °F 22% 29.86 in 10.0 mi North - - N/A   Clear
3:35 PM 59.0 °F 19.4 °F 22% 29.86 in 10.0 mi North - - N/A   Clear
3:55 PM 60.8 °F 21.2 °F 22% 29.85 in 10.0 mi North - - N/A   Clear
4:15 PM 60.8 °F 23.0 °F 23% 29.86 in 10.0 mi North - - N/A   Clear
4:35 PM 59.0 °F 21.2 °F 23% 29.85 in 10.0 mi North - - N/A   Scattered Clouds
4:55 PM 60.8 °F 23.0 °F 23% 29.85 in 10.0 mi North - - N/A   Mostly Cloudy
5:15 PM 59.0 °F 24.8 °F 27% 29.85 in 10.0 mi North - - N/A   Partly Cloudy
5:35 PM 57.2 °F 26.6 °F 31% 29.86 in 10.0 mi North - - N/A   Clear
5:55 PM 55.4 °F 30.2 °F 38% 29.86 in 10.0 mi North - - N/A   Mostly Cloudy
6:15 PM 53.6 °F 30.2 °F 41% 29.86 in 10.0 mi North - - N/A   Overcast
6:35 PM 53.6 °F 30.2 °F 41% 29.86 in 10.0 mi North - - N/A   Overcast
6:55 PM 51.8 °F 30.2 °F 44% 29.86 in 10.0 mi North - - N/A   Overcast
7:15 PM 51.8 °F 30.2 °F 44% 29.87 in 10.0 mi North - - N/A   Overcast
7:35 PM 51.8 °F 28.4 °F 41% 29.86 in 10.0 mi North - - N/A   Overcast
7:55 PM 50.0 °F 28.4 °F 43% 29.87 in 10.0 mi North - - N/A   Overcast
8:15 PM 50.0 °F 28.4 °F 43% 29.87 in 10.0 mi North - - N/A   Overcast
8:35 PM 50.0 °F 28.4 °F 43% 29.88 in 10.0 mi North - - N/A   Mostly Cloudy
8:55 PM 48.2 °F 30.2 °F 50% 29.88 in 10.0 mi North - - N/A   Mostly Cloudy
9:15 PM 48.2 °F 30.2 °F 50% 29.87 in 10.0 mi North - - N/A   Overcast
9:35 PM 46.4 °F 30.2 °F 53% 29.87 in 10.0 mi North - - N/A   Overcast
9:55 PM 44.6 °F 33.8 °F 66% 29.88 in 10.0 mi North - - N/A   Overcast
10:15 PM 44.6 °F 33.8 °F 66% 29.89 in 10.0 mi North - - N/A   Overcast
10:35 PM 44.6 °F 33.8 °F 66% 29.89 in 10.0 mi North - - N/A   Overcast
10:55 PM 44.6 °F 33.8 °F 66% 29.89 in 10.0 mi North - - N/A   Overcast
11:35 PM 42.8 °F 33.8 °F 70% 29.89 in 10.0 mi North - - N/A   Mostly Cloudy
11:55 PM 42.8 °F 33.8 °F 70% 29.89 in 10.0 mi North - - N/A   Overcast